OpenBCM V1.08-5-g2f4a (Linux)

Packet Radio Mailbox

IZ3LSV

[San Dona' di P. JN]

 Login: GUEST





  
CX2SA  > KEP      14.04.20 23:33l 94 Lines 3939 Bytes #999 (0) @ ARL
BID : ARLK030
Read: GUEST
Subj: ARLK030 Keplerian data
Path: IZ3LSV<I0OJJ<I0OJJ<N6RME<CX2SA
Sent: 200414/2128Z @:CX2SA.SAL.URY.SOAM #:28815 [Salto] FBB7.00e $:ARLK030

>From cx2sa%cx2sa.sal.ury.soam@i0ojj.ampr.org Tue Apr 14 23:30:17 2020
Received: from i0ojj.ampr.org by i0ojj.ampr.org (JNOS2.0n.beta1) with SMTP
	id AA106614 ; Tue, 14 Apr 2020 23:30:17 +0200
Message-Id: <ARLK030@i0ojj.bbs>
>From: cx2sa@cx2sa.sal.ury.soam
X-JNOS-User-Port: Telnet   (i0ojj @ 44.134.32.240)  -> Sending message

From: CX2SA@CX2SA.SAL.URY.SOAM
To  : KEP@ARL


ZCZC SK30
QST de W1AW
Keplerian Bulletin 30  ARLK030
>From ARRL Headquarters
Newington, CT  April 14, 2020
To all radio amateurs

SB KEP ARL ARLK030
ARLK030 Keplerian data

Special thanks to AMSAT-NA (AMSAT.ORG) for the following Keplerian
data.

Decode 2-line elsets with the following key:
1 AAAAAU 00  0  0 BBBBB.BBBBBBBB  .CCCCCCCC  00000-0  00000-0 0  DDDZ
2 AAAAA EEE.EEEE FFF.FFFF GGGGGGG HHH.HHHH III.IIII JJ.JJJJJJJJKKKKKZ
KEY: A-CATALOGNUM B-EPOCHTIME C-DECAY D-ELSETNUM E-INCLINATION F-RAAN
G-ECCENTRICITY H-ARGPERIGEE I-MNANOM J-MNMOTION K-ORBITNUM Z-CHECKSUM

0 AO-07
1 7530U 74089B   20104.92010951 -.00000025 +00000-0 +12785-3 0  9991
2 7530 101.7938 075.0379 0012458 127.0360 296.2453 12.53642905077907
0 FO-29
1 24278U 96046B   20104.91077020 +.00000006 +00000-0 +41790-4 0  9992
2 24278 098.5743 223.2247 0350445 181.8299 178.1582 13.53097600168159
0 ISS
1 25544U 98067A   20105.55654365  .00006068  00000-0  11945-3 0  9990
2 25544  51.6454 303.3718 0003720 110.4372 283.2859 15.48697670222154
0 SO-50
1 27607U 02058C   20104.78208209  .00000014  00000-0  22725-4 0  9997
2 27607  64.5555 212.0953 0056133 194.1455 165.8079 14.75624706931318
0 CO-55
1 27844U 03031E   20104.91991580 +.00000042 +00000-0 +38637-4 0  9998
2 27844 098.6842 113.6237 0008821 238.5884 121.4432 14.22231148870925
0 RS-22
1 27939U 03042A   20105.47005454  .00000077  00000-0  22370-4 0  9998
2 27939  98.0792 241.1782 0012709 189.9952 170.0998 14.66850673884633
0 RS-30
1 32953U 08025A   20105.41244593  .00000037  00000-0  19437-3 0  9994
2 32953  82.5027 317.7464 0018793 191.5421 168.5229 12.43095116539676
0 KKS-1
1 33499U 09002H   20105.43527651  .00000070  00000-0  18333-4 0  9999
2 33499  98.3252 318.3578 0008568 336.9928  23.0895 14.75520250603570
0 AO-71
1 37854U 11061E   20105.10487169  .00000971  00000-0  56781-4 0  9998
2 37854 101.7031 163.1675 0158584 253.0922 105.2852 15.07128864462237
0 AO-73
1 39444U 13066AE  20104.75333567  .00000250  00000-0  36832-4 0  9999
2 39444  97.5599 108.5719 0059366 121.7811 238.9205 14.82095119344371
0 UKUBE 1
1 40074U 14037F   20105.45756915  .00000282  00000-0  40905-4 0  9994
2 40074  98.4546 289.9823 0004220 342.2396  17.8668 14.84230945312261
0 XW-2A
1 40903U 15049E   20105.43646531  .00002044  00000-0  48425-4 0  9992
2 40903  97.2947 154.3236 0014471 130.0967 344.5466 15.42859883256607
0 XW-2F
1 40910U 15049M   20105.55488799  .00001059  00000-0  55592-4 0  9991
2 40910  97.4686 110.0247 0013269 218.6802 260.2352 15.17827621252648
0 XW-2B
1 40911U 15049N   20105.54243333  .00000845  00000-0  47203-4 0  9996
2 40911  97.4762 108.2272 0012530 229.9921 245.8552 15.16155802252485
0 IO-86
1 40931U 15052B   20105.45443477  .00000583  00000-0 -78876-5 0  9994
2 40931   5.9946  71.8316 0012948  92.5385 267.6211 14.76630990245780
0 CAS-4B
1 42759U 17034B   20105.25638747  .00000173  00000-0  23994-4 0  9994
2 42759  43.0204  19.7626 0011824 340.1169 157.4502 15.09787413156262
0 CAS-4A
1 42761U 17034D   20105.47447421  .00000197  00000-0  25428-4 0  9998
2 42761  43.0210  17.9070 0012299 342.7381 186.5282 15.09865905156290
0 AO-91
1 43017U 17073E   20104.77452269 +.00000395 +00000-0 +36839-4 0  9992
2 43017 097.7250 019.5005 0255670 261.0677 096.1517 14.78879736129608
0 AO-92
1 43137U 18004AC  20105.14122142  .00001011  00000-0  44694-4 0  9990
2 43137  97.4499 176.7271 0007515 284.1148  75.9253 15.24000006125242

Keplerian bulletins are transmitted twice weekly from W1AW.  The
next scheduled transmission of these data will be Friday, April 17,
2020, at 2230z on Baudot and BPSK31.
NNNN



Read previous mail | Read next mail


 14.10.2025 05:02:26lGo back Go up